{"data":{"norad_id":67397,"epoch":"2026-09-20T22:55:51.004416Z","epoch_age_seconds":60727,"freshness":"FRESH","line1":"1 67397U 26004AL  26263.95545144  .00004329  00000+0  20093-3 0  9994","line2":"2 67397  97.4608 262.0406 0005946  21.3853 338.7630 15.20543590 38313","mean_motion":15.2054359,"eccentricity":0.0005946,"inclination_deg":97.4608,"raan_deg":262.0406,"arg_perigee_deg":21.3853,"mean_anomaly_deg":338.763,"bstar":0.00020093,"rev_number":3831,"period_min":94.702973954203,"perigee_km":500.10761022902,"apogee_km":508.29208520833,"semimajor_km":6882.3368477187,"source":"CELESTRAK","updated_at":"2026-09-21T09:00:16.600714Z"}}